Location: Unspecified
(49.9820°N, 20.4363°E)
Time: 22:38:41
(UTC+02:00)

Vanguard 1 - All Passes

Search period start: 15 May 2026 00:00
Search period end: 25 May 2026 00:00
Orbit: 654 x 3817 km, 34.2° (Epoch: 14 May)

Date Brightness Start Highest point End Pass type
(mag) Time Alt. Az. Time Alt. Az. Time Alt. Az.
15 May - 00:08:45 10° WSW 00:19:11 17° SW 00:31:10 10° S visible
15 May - 15:10:59 10° SSE 15:14:02 12° SE 15:17:39 10° ESE daylight
15 May - 17:24:54 10° SW 17:32:40 33° SSE 17:45:27 10° ESE daylight
15 May - 19:43:05 10° WSW 19:53:37 40° S 20:10:49 10° SE daylight
15 May - 22:03:38 10° WSW 22:15:58 30° SSW 22:33:00 10° SSE visible
16 May - 00:31:41 10° WSW 00:38:01 12° SW 00:44:54 10° SSW visible
16 May - 15:28:04 10° S 15:32:32 16° SE 15:38:28 10° ESE daylight
16 May - 17:43:37 10° SW 17:51:35 35° SSE 18:04:55 10° ESE daylight
16 May - 20:02:13 10° WSW 20:12:46 38° S 20:29:42 10° SE daylight
16 May - 22:23:28 10° WSW 22:35:04 25° SSW 22:50:29 10° SSE visible
17 May - 15:45:57 10° S 15:51:08 20° SE 15:58:34 10° ESE daylight
17 May - 18:02:28 10° SW 18:10:35 36° S 18:24:16 10° ESE daylight
17 May - 20:21:27 10° WSW 20:31:57 34° SSW 20:48:21 10° SE daylight
17 May - 22:43:46 10° WSW 22:54:08 20° SSW 23:07:17 10° S visible
18 May - 16:04:12 10° SSW 16:09:51 24° SSE 16:18:20 10° ESE daylight
18 May - 18:21:23 10° WSW 18:29:39 36° S 18:43:29 10° ESE daylight
18 May - 20:40:50 10° WSW 20:51:08 31° SSW 21:06:42 10° SSE visible
18 May - 23:04:57 10° WSW 23:13:09 15° SW 23:22:56 10° S visible
19 May - 16:22:42 10° SSW 16:28:40 27° SSE 16:37:54 10° ESE daylight
19 May - 18:40:25 10° WSW 18:48:45 35° S 19:02:33 10° SE daylight
19 May - 21:00:25 10° WSW 21:10:18 26° SSW 21:24:38 10° SSE visible
19 May - 23:29:35 10° SW 23:32:09 10° SW 23:34:51 10° SSW visible
20 May - 14:27:14 10° SSE 14:28:59 11° SE 14:30:56 10° SE daylight
20 May - 16:41:22 10° SW 16:47:33 29° SSE 16:57:20 10° ESE daylight
20 May - 18:59:32 10° WSW 19:07:52 33° S 19:21:25 10° SE daylight
20 May - 21:20:18 10° WSW 21:29:27 22° SSW 21:42:02 10° SSE visible
21 May - 14:44:20 10° S 14:47:37 15° SSE 14:51:43 10° ESE daylight
21 May - 17:00:11 10° SW 17:06:30 30° S 17:16:38 10° ESE daylight
21 May - 19:18:47 10° WSW 19:27:02 29° SSW 19:40:02 10° SE daylight
21 May - 21:40:46 10° WSW 21:48:35 17° SSW 21:58:37 10° S visible
22 May - 15:02:22 10° SSW 15:06:20 18° SSE 15:11:38 10° ESE daylight
22 May - 17:19:07 10° SW 17:25:31 30° S 17:35:48 10° ESE daylight
22 May - 19:38:11 10° WSW 19:46:12 26° SSW 19:58:19 10° SSE daylight
22 May - 22:02:39 10° SW 22:07:42 12° SW 22:13:32 10° SSW visible
23 May - 15:20:46 10° SSW 15:25:08 20° SSE 15:31:13 10° ESE daylight
23 May - 17:38:08 10° WSW 17:44:34 29° S 17:54:48 10° SE daylight
23 May - 19:57:51 10° WSW 20:05:22 22° SSW 20:16:10 10° SSE daylight
24 May - 15:39:23 10° SW 15:44:00 22° SSE 15:50:37 10° ESE daylight
24 May - 17:57:16 10° WSW 18:03:40 27° S 18:13:36 10° SE daylight
24 May - 20:17:55 10° WSW 20:24:31 17° SSW 20:33:22 10° S daylight
